DELTA 1 DEB, 42558

Orbit data source: Space-Track

DELTA 1 DEB, 42558 is space debris in SSO originally from a launch on Sun, 23 Jul 1972 UTC launched from the Air Force Western Test Range (AFWTR). Debris objects in space refer to the collection of defunct objects orbiting the Earth. Examples of debris include non-operational satellites, rocket bodies, and fragments generated from explosions, collisions, or faulty payload assembly.

Loading next visibility...
DELTA 1 DEB details
Identifier
42558, 1972-058JR
Orbit
SSO
Last TLE update19 hours ago
Origin
Flag of USGSFC (US)
ManufacturerUnknown
MissionSpacecraft
Bus & MotorUnknown
MassUnknown
Launch date (UTC)
1972-07-23 (52 years ago)
Launch vehicleUnknown
Launch site
Air Force Western Test Range (AFWTR)
Object type
Payload
Rocket body
Debris
Shape & HBRUnknown
Radar Cross SectionSmall (<0.1 m²)

Expand to show TLE details & history

TLE from 19 hours ago
0 DELTA 1 DEB
1 42558U 72058JR  24339.40156344  .00004579  00000-0  85015-3 0  9991
2 42558  97.8149 317.9142 0039189  10.0589 350.1391 14.65163342588440
Epoch: 2024-12-04T09:38Z
Definitive object data (Epoch: 2024-12-04T09:38:15.081Z)
Latitude0.00004°
Longitude99.65412°
Altitude652.314 km
Speed7.546 km/s
True Right ascension21h 11m 39s
True Declination0° 00' 00"
Sunlit
Object was in daylight at TLE epoch
Visualization TLE readout
Latitude-33.42376°
Longitude-84.76237°
Altitude713.99 km
Speed7.484 km/s
Apparent Right ascension11h 24m 52s
Apparent Declination-44° 54' 45"
Sunlit
Object is in daylight
Visualization observer readout
Local Sidereal Time02:35:46
Azimuth114.23° SE
Elevation-54.926°
Doppler factor1
Orbital elements
Apogee altitude701.243 km
Perigee altitude645.973 km
Semi-major axis7,051.745 km
Eccentricity0.0039189
Inclination97.8149°
RAAN317.9142°
Arg. of periapsis10.0589°
True anomaly350.06182°
Mean anomaly350.1391°
Eccentric anomaly350.1005°
Mean motion3.66521 °/min
BSTAR0.00085015
Orbital period98.22 mins
Loading maneuver chart data...

DELTA 1 DEB Visibility forecast

Observer location: undefined°, undefined

Span
Click to sort rows by Start time (UTC) header in descending order
Start Az.
Max El. time (UTC)
Max El. Az.
Max El.
End time (UTC)
End Az.
7 mins2024-12-05 10:48:20.004Z41.713° NE2024-12-05 10:51:20.004Z84.983° E23.346°2024-12-05 10:55:20.004Z148.732° SSE
6 mins2024-12-05 12:26:20.004Z340.053° N2024-12-05 12:29:20.004Z282.772° WNW26.828°2024-12-05 12:32:20.004Z235.193° WSW
5 mins2024-12-05 21:51:20.004Z105.898° ESE2024-12-05 21:53:20.004Z72.333° E20.826°2024-12-05 21:56:20.004Z23.213° NE
6 mins2024-12-05 23:28:20.004Z214.073° SW2024-12-05 23:30:20.004Z254.508° W28.049°2024-12-05 23:34:20.004Z325.252° NNW
|